Tracking 34403 objects as of 13-Jun-2026
HD Live streaming from Space Station
objects crossing your sky now

BONUM 1

Track BONUM 1 now!
BONUM 1 is classified as:


NORAD ID: 25546
Int'l Code: 1998-068A
Perigee: 36,125.7 km
Apogee: 36,162.3 km
Inclination: 10.9 °
Period: 1,454.0 minutes
Semi major axis: 42514 km
RCS: 0.003 m2 (small)
Launch date: November 22, 1998
Source: Commonwealth of Independent States (former USSR) (CIS)
Launch site: AIR FORCE EASTERN TEST RANGE (AFETR)

Television broadcasting; 8 Ku-band, Siberia or Europe, selected.
Your satellite tracking list
Your tracking list is empty




NASA's NSSDC Master Catalog

Two Line Element Set (TLE):
1 25546U 98068A   26163.13890300  .00000014  00000-0  00000-0 0  9990
2 25546  10.8797  46.4599 0004305   9.8404 338.2465  0.99035267100485
Source of the keplerian elements: AFSPC